[[{"header":{"parameterUnit":"m.s-1","parameterCategory":1,"la1":30.2991,"la2":30.254,"lo1":-89.0895,"lo2":-89.0444,"dx":0.0017,"dy":0.0017,"nx":28,"ny":28,"refTime":"2022-11-03T15:00:00:Z","depth":0,"parameterNumber":2,"parameterNumberName":"U-component_of_WINDS"},"data":[0,0,0,0,0,0,0,0,0,0,0,0,0,0,0,0,0,0,0,0,0,0,0,0,0,0,0,0,0,0,0,0,0,0,0,0,0,0,0,0,0,0,0,0,0,0,0,0,0,0,0,0,0,0,0,0,0,0,-4.2386,-4.2387,0,-4.2479,-4.248,-4.2481,-4.2458,-4.2456,-4.2454,-4.2452,-4.2545,-4.2549,-4.2553,0,0,0,0,0,0,0,0,0,0,0,0,0,-4.2187,-4.2191,-4.2386,-4.2387,-4.2388,-4.2478,-4.248,-4.2481,-4.2458,-4.2456,-4.2454,-4.2451,-4.2543,-4.2548,-4.2553,0,0,0,0,0,0,0,0,0,0,0,0,0,-4.2276,-4.2192,-4.2386,-4.2388,-4.2389,-4.2478,-4.248,-4.2481,-4.2458,-4.2456,-4.2453,-4.245,-4.2542,-4.2548,-4.2554,-4.2647,0,0,-4.2573,-4.2576,0,0,0,0,0,0,0,0,-4.2271,-4.2283,-4.2386,-4.2388,-4.2389,-4.2454,-4.2444,-4.2537,-4.2459,-4.2432,-4.2452,-4.2449,-4.2517,-4.2525,-4.2548,-4.2651,-4.2655,-4.2574,-4.2577,-4.258,-4.2582,0,0,0,0,0,0,0,-4.2265,-4.2279,-4.2422,-4.2388,-4.2389,-4.2383,-4.2393,-4.2461,-4.2488,-4.2434,-4.2433,-4.2444,-4.2517,-4.2542,-4.255,-4.2656,-4.2573,-4.2579,-4.2583,-4.2585,-4.2839,-4.2842,0,0,0,0,0,0,-4.2258,-4.2274,-4.242,-4.2425,-4.2322,-4.2389,-4.24,-4.2436,-4.2487,-4.2493,-4.2446,-4.2443,-4.2533,-4.2543,-4.2553,-4.2664,-4.258,-4.2586,-4.2589,-4.2836,-4.284,-4.2843,0,0,0,0,0,0,-4.2254,-4.2271,-4.2416,-4.2349,-4.2367,-4.2395,-4.2436,-4.2439,-4.2464,-4.2497,-4.2501,-4.2467,-4.2531,-4.2544,-4.2624,-4.2667,-4.2589,-4.2594,-4.2833,-4.2837,-4.2842,-4.2887,0,0,0,0,0,0,-4.2248,-4.227,-4.2305,-4.235,-4.2371,-4.2485,-4.2439,-4.2443,-4.2475,-4.2471,-4.2517,-4.2522,-4.253,-4.2614,-4.263,-4.2674,-4.2599,-4.2829,-4.2835,-4.284,-4.2882,-4.2893,-4.2902,0,0,0,0,0,-4.2241,-4.2314,-4.2307,-4.2325,-4.2416,-4.2488,-4.25,-4.2507,-4.2479,-4.2515,-4.2536,-4.2521,-4.266,-4.2623,-4.264,-4.2687,-4.2826,-4.2833,-4.284,-4.2878,-4.2891,-4.2902,0,0,0,0,0,0,-4.2272,-4.232,-4.2313,-4.2403,-4.2442,-4.2484,-4.2529,-4.2521,-4.2568,-4.2562,-4.257,-4.258,-4.2661,-4.2682,-4.2639,-4.2779,-4.2739,-4.275,-4.2762,-4.2775,-4.2785,-4.2777,-4.2604,0,0,0,0,0,-4.229,-4.2345,-4.2383,-4.2459,-4.2479,-4.2501,-4.2532,-4.2535,-4.2575,-4.2591,-4.2618,-4.2657,-4.2709,-4.2743,-4.2794,-4.2886,-4.2895,-4.2927,-4.2937,-4.2945,-4.2953,-4.3003,-4.3017,-4.2866,-4.2866,-4.2865,0,0,-4.2326,-4.2359,-4.2393,-4.2466,-4.2496,-4.2552,-4.2515,-4.2575,-4.2616,-4.26,-4.2676,-4.2698,-4.2741,-4.2827,-4.2867,-4.2847,-4.2997,-4.2953,-4.296,-4.2964,-4.3011,-4.3026,-4.3038,-4.287,-4.2869,-4.2869,0,0,-4.2421,-4.2452,-4.2518,-4.255,-4.2596,-4.2611,-4.2627,-4.2671,-4.2684,-4.2762,-4.275,-4.2799,-4.289,-4.2921,-4.2949,-4.3057,-4.3045,-4.3073,-4.3125,-4.3174,-4.3186,-4.3196,-4.3234,-4.3247,-4.3082,-4.3082,-4.3082,0,-4.246,-4.2544,-4.2553,-4.2615,-4.2647,-4.2636,-4.2703,-4.2733,-4.2793,-4.2815,-4.2793,-4.2907,-4.2936,-4.3029,-4.3055,-4.3079,-4.3096,-4.3067,-4.3183,-4.3194,-4.3204,-4.324,-4.3254,-4.3085,-4.3085,-4.3085,-4.3084,0,-4.2589,-4.2648,-4.2696,-4.2755,-4.2793,-4.2857,-4.2875,-4.2912,-4.2912,-4.2929,-4.3007,-4.3042,-4.3099,-4.3121,-4.3122,-4.3215,-4.3201,-4.3182,-4.3141,-4.3221,-4.3255,-4.3269,-4.309,-4.3089,-4.3088,-4.3087,0,0,-4.2704,-4.2769,-4.2786,-4.2813,-4.2865,-4.291,-4.2973,-4.303,-4.3061,-4.3104,-4.3156,-4.3234,-4.3216,-4.3248,-4.3252,-4.3295,-4.3377,-4.327,-4.3271,-4.3287,-4.348,-4.3494,-4.3509,-4.337,-4.3373,-4.3375,-4.3476,0,-4.2802,-4.2915,-4.2925,-4.3026,-4.308,-4.3071,-4.3126,-4.3163,-4.3181,-4.3229,-4.3248,-4.3302,-4.3276,-4.3295,-4.3337,-4.3358,-4.3415,-4.3351,-4.3418,-4.342,-4.3406,-4.3527,-4.3541,-4.3635,-4.349,-4.3492,-4.3493,0,-4.2931,-4.2979,-4.3085,-4.3129,-4.3152,-4.3202,-4.3254,-4.3301,-4.3343,-4.3352,-4.3389,-4.3387,-4.3452,-4.3411,-4.35,-4.3455,-4.3484,-4.3499,-4.3502,-4.3507,-4.346,-4.3534,-4.3665,-4.3679,-4.3514,-4.3513,-4.3511,0,-4.3003,-4.3093,-4.3168,-4.3192,-4.3246,-4.3281,-4.3305,-4.3344,-4.3378,-4.3424,-4.3445,-4.3498,-4.3527,-4.3567,-4.358,-4.3549,-4.3668,-4.3628,-4.3677,-4.3677,-4.3701,-4.3699,-4.3837,-4.3722,-4.3722,-4.3721,-4.3721,0,-4.3111,-4.3176,-4.3201,-4.3247,-4.332,-4.3331,-4.3403,-4.3425,-4.346,-4.351,-4.3506,-4.3552,-4.3567,-4.3616,-4.3626,-4.3698,-4.3711,-4.372,-4.3721,-4.3719,-4.3718,-4.3737,-4.373,-4.3725,-4.3724,-4.3723,-4.3723,0,-4.3202,-4.3222,-4.3303,-4.3348,-4.3361,-4.3412,-4.345,-4.3494,-4.3512,-4.3575,-4.359,-4.3617,-4.3675,-4.3692,-4.3761,-4.3768,-4.3851,-4.3848,-4.3837,-4.3837,-4.3884,-4.3879,-4.4038,-4.4059,-4.3931,-4.3932,-4.3934,0,-4.3268,-4.3318,-4.3369,-4.3402,-4.3428,-4.3482,-4.3516,-4.353,-4.3565,-4.3618,-4.3655,-4.3712,-4.3759,-4.3851,-4.3876,-4.3929,-4.3926,-4.3978,-4.3933,-4.393,-4.3925,-4.3921,-4.3926,-4.3986,-4.3987,-4.3988,-4.3989,0,-4.3384,-4.3392,-4.3442,-4.3496,-4.3537,-4.358,-4.3621,-4.3649,-4.3668,-4.3708,-4.3768,-4.3804,-4.3875,-4.3931,-4.3985,-4.4009,-4.4002,-4.4003,-4.4017,-4.4014,-4.4006,-4.401,-4.3858,-4.3999,-4.3998,-4.3997,-4.3997,-4.3996,-4.3464,-4.3508,-4.355,-4.3606,-4.3639,-4.3678,-4.3722,-4.3745,-4.3795,-4.3854,-4.3859,-4.3923,-4.3964,-4.4036,-4.4063,-4.4112,-4.4097,-4.4117,-4.4122,-4.4127,-4.413,-4.3999,-4.4122,-4.4122,-4.4122,-4.4122,-4.4121,0,-4.3578,-4.3605,-4.3657,-4.3715,-4.3759,-4.3751,-4.3796,-4.3833,-4.389,-4.3929,-4.3975,-4.4043,-4.4098,-4.4128,-4.4183,-4.4217,-4.4215,-4.4231,-4.4227,-4.4233,-4.4141,-4.4123,-4.4231,-4.4231,-4.4231,-4.4231,-4.4231,-4.4231,-4.3643,-4.3716,-4.3729,-4.3819,-4.3846,-4.3909,-4.3935,-4.3971,-4.4002,-4.4079,-4.4125,-4.4145,-4.418,-4.4238,-4.4288,-4.4295,-4.4315,-4.4332,-4.4337,-4.4251,-4.4239,-4.4228,-4.4211,-4.4336,-4.4336,-4.4425,-4.4425,-4.4426]},{"header":{"parameterUnit":"m.s-1","parameterCategory":1,"la1":30.2991,"la2":30.254,"lo1":-89.0895,"lo2":-89.0444,"dx":0.0017,"dy":0.0017,"nx":28,"ny":28,"refTime":"2022-11-03T15:00:00:Z","depth":0,"parameterNumber":3,"parameterNumberName":"V-component_of_WINDS"},"data":[0,0,0,0,0,0,0,0,0,0,0,0,0,0,0,0,0,0,0,0,0,0,0,0,0,0,0,0,0,0,0,0,0,0,0,0,0,0,0,0,0,0,0,0,0,0,0,0,0,0,0,0,0,0,0,0,0,0,4.6897,4.6898,0,4.6998,4.6999,4.7,4.6986,4.6985,4.6983,4.6981,4.7086,4.709,4.7094,0,0,0,0,0,0,0,0,0,0,0,0,0,4.6693,4.6697,4.6896,4.6898,4.6899,4.6998,4.6999,4.7,4.6987,4.6984,4.6982,4.6981,4.7084,4.7089,4.7095,0,0,0,0,0,0,0,0,0,0,0,0,0,4.6787,4.6698,4.6896,4.6904,4.6906,4.6997,4.6999,4.7001,4.6987,4.6984,4.6982,4.698,4.7082,4.7089,4.7095,4.7186,0,0,4.7115,4.7118,0,0,0,0,0,0,0,0,4.6781,4.6794,4.6902,4.6904,4.6906,4.6977,4.6965,4.7063,4.6988,4.6956,4.6981,4.6978,4.7052,4.706,4.7085,4.7191,4.7195,4.7116,4.712,4.7122,4.7124,0,0,0,0,0,0,0,4.6775,4.679,4.6937,4.6903,4.6906,4.6903,4.6914,4.6984,4.7017,4.6959,4.6958,4.697,4.7052,4.7079,4.7087,4.7197,4.7116,4.7121,4.7125,4.7128,4.7384,4.7387,0,0,0,0,0,0,4.6766,4.6784,4.6933,4.694,4.6836,4.6909,4.692,4.6957,4.7016,4.7023,4.6972,4.6969,4.7069,4.708,4.7091,4.7202,4.7122,4.7128,4.7132,4.7381,4.7385,4.7388,0,0,0,0,0,0,4.6762,4.678,4.6929,4.6862,4.6881,4.6915,4.6956,4.696,4.6986,4.7026,4.7032,4.6993,4.7067,4.7082,4.7163,4.7205,4.7131,4.7137,4.7378,4.7382,4.7386,4.7424,0,0,0,0,0,0,4.6756,4.6778,4.6812,4.6863,4.6884,4.6999,4.6958,4.6964,4.6998,4.6994,4.7047,4.7054,4.7066,4.7153,4.7169,4.7213,4.7142,4.7374,4.738,4.7385,4.7419,4.7429,4.7438,0,0,0,0,0,4.6749,4.6819,4.6814,4.6832,4.6928,4.7001,4.7014,4.7027,4.7001,4.7036,4.7062,4.7052,4.7198,4.7161,4.7179,4.7226,4.7371,4.7378,4.7384,4.7415,4.7427,4.7438,0,0,0,0,0,0,4.6772,4.6825,4.6821,4.6909,4.6951,4.6999,4.7043,4.7039,4.7089,4.7084,4.7099,4.7111,4.7193,4.7217,4.7176,4.7318,4.7281,4.7292,4.7299,4.7311,4.732,4.7312,4.7148,0,0,0,0,0,4.6787,4.6842,4.6886,4.696,4.6981,4.7009,4.7041,4.7048,4.7092,4.7109,4.7141,4.7184,4.724,4.7277,4.733,4.7423,4.7435,4.7464,4.7473,4.7481,4.749,4.7542,4.7556,4.7409,4.7409,4.7409,0,0,4.682,4.6856,4.6889,4.6965,4.6998,4.7056,4.7024,4.7085,4.7128,4.7119,4.7197,4.7222,4.7272,4.736,4.74,4.7383,4.7533,4.7489,4.7495,4.75,4.755,4.7564,4.7577,4.7414,4.7413,4.7412,0,0,4.6908,4.694,4.7006,4.704,4.7091,4.7109,4.7125,4.7175,4.7191,4.727,4.7265,4.7316,4.7412,4.7448,4.7479,4.7583,4.7576,4.76,4.7649,4.77,4.7711,4.7722,4.776,4.7774,4.7609,4.7609,4.7609,0,4.6942,4.7027,4.704,4.7103,4.7137,4.7132,4.7199,4.7232,4.7298,4.7322,4.7302,4.7423,4.7456,4.7552,4.7578,4.7603,4.7622,4.7594,4.7709,4.7719,4.7729,4.7766,4.778,4.7611,4.7611,4.7611,4.7611,0,4.7067,4.7127,4.7174,4.7238,4.7278,4.7342,4.7366,4.7404,4.7408,4.7429,4.7511,4.755,4.7612,4.7636,4.7639,4.7734,4.7722,4.7705,4.7669,4.7745,4.778,4.7794,4.7615,4.7614,4.7614,4.7613,0,0,4.7172,4.7243,4.726,4.729,4.7347,4.7394,4.7459,4.752,4.7553,4.7599,4.7655,4.7737,4.7723,4.7758,4.7766,4.7811,4.7893,4.7789,4.779,4.7807,4.8001,4.8013,4.8029,4.7888,4.7891,4.7893,4.7997,0,4.7266,4.7381,4.7395,4.7498,4.7554,4.7551,4.7608,4.7649,4.7671,4.7722,4.7746,4.7805,4.778,4.7802,4.7846,4.7873,4.7932,4.7866,4.7941,4.7944,4.793,4.8047,4.806,4.8156,4.801,4.8013,4.8014,0,4.7391,4.7442,4.755,4.76,4.7625,4.7675,4.7734,4.7782,4.783,4.7843,4.7883,4.7886,4.7954,4.7916,4.8011,4.7966,4.7998,4.8016,4.802,4.8028,4.7984,4.8059,4.8187,4.8201,4.8036,4.8034,4.8032,0,4.7458,4.7553,4.763,4.7656,4.7716,4.7753,4.778,4.7825,4.7861,4.7912,4.7936,4.7994,4.8026,4.8072,4.8091,4.8061,4.8186,4.8148,4.82,4.8199,4.8226,4.8224,4.8362,4.8246,4.8246,4.8245,4.8245,0,4.7562,4.7629,4.7661,4.7709,4.7784,4.78,4.7875,4.79,4.7941,4.7994,4.7995,4.8045,4.8067,4.8121,4.8136,4.8214,4.8228,4.8241,4.8245,4.8242,4.824,4.8263,4.8257,4.8249,4.8248,4.8247,4.8247,0,4.7649,4.7674,4.7758,4.7809,4.7824,4.7877,4.7921,4.7968,4.7989,4.8057,4.8074,4.8108,4.8172,4.8195,4.8273,4.8283,4.8374,4.8371,4.8358,4.8359,4.8409,4.8404,4.8566,4.8589,4.8457,4.8459,4.846,0,4.7715,4.7766,4.7823,4.7859,4.7887,4.7945,4.7982,4.8001,4.804,4.8099,4.8139,4.8203,4.8255,4.8357,4.8389,4.8449,4.8449,4.8501,4.8458,4.8454,4.8451,4.8448,4.8454,4.8509,4.8511,4.8512,4.8513,0,4.7828,4.7838,4.7892,4.7951,4.7996,4.8043,4.8088,4.8118,4.8144,4.8188,4.8253,4.8293,4.8373,4.8437,4.8499,4.8527,4.8525,4.8526,4.8542,4.8539,4.853,4.8537,4.8381,4.8523,4.8522,4.8521,4.852,4.852,4.7907,4.7953,4.8001,4.8061,4.8098,4.8141,4.8188,4.8216,4.8271,4.8338,4.8345,4.8416,4.8464,4.8547,4.8579,4.8635,4.8621,4.8642,4.8648,4.8653,4.8658,4.852,4.8646,4.8646,4.8646,4.8645,4.8645,0,4.8022,4.8052,4.8108,4.8172,4.8221,4.8214,4.8265,4.8306,4.8368,4.8413,4.8464,4.8541,4.8603,4.864,4.8703,4.8741,4.8742,4.8757,4.8755,4.8762,4.8666,4.8647,4.8756,4.8756,4.8756,4.8755,4.8755,4.8755,4.8087,4.8165,4.8181,4.8278,4.8309,4.8378,4.8408,4.8448,4.8484,4.8569,4.8621,4.8645,4.8688,4.8754,4.8811,4.8821,4.8844,4.8861,4.887,4.878,4.8768,4.8757,4.874,4.8866,4.8866,4.8961,4.8962,4.8963]}]]